EW5256 Weather Reports


time (UTC)temp
C
wind
direction
speed
KPH
gust
KPH
rain 1hr
cm
rain 24hr
cm
rain mn
cm
humidity
%
barometer
mb
20260507114528 8 287 0.0 6.4 0.00 1.88 0.58 82 1006.9
20260507113039 9 12 0.0 3.2 0.00 1.88 0.58 85 1007.0
20260507111527 8 301 0.0 0.0 0.00 1.88 0.58 86 1007.3
20260507110030 8 42 0.0 0.0 0.00 1.88 0.58 87 1007.0
20260507104525 8 337 0.0 0.0 0.00 1.88 0.58 88 1007.2
20260507103022 7 205 0.0 4.8 0.00 1.88 0.58 88 1007.6
20260507101522 7 302 0.0 3.2 0.00 1.88 0.58 87 1007.1
20260507100030 7 323 0.0 1.6 0.00 1.88 0.58 87 1006.8
20260507094519 7 294 0.0 4.8 0.00 1.88 0.58 86 1006.8
20260507093018 7 321 1.6 4.8 0.00 1.88 0.58 85 1006.4
20260507091521 7 286 1.6 6.4 0.00 1.88 0.58 85 1006.8
20260507090015 8 32 1.6 12.9 0.00 1.88 0.58 85 1006.6
20260507084513 8 344 3.2 11.3 0.00 1.88 0.58 86 1006.5
20260507083011 8 24 1.6 8.0 0.00 1.88 0.58 88 1006.2
20260507081508 8 240 1.6 6.4 0.00 1.88 0.58 89 1006.6
20260507080006 8 273 1.6 4.8 0.00 1.88 0.58 89 1006.2
20260507074506 8 299 1.6 8.0 0.00 1.88 0.58 90 1006.2
20260507073004 8 308 1.6 8.0 0.00 1.88 0.58 91 1006.0
20260507071601 8 292 1.6 6.4 0.00 1.88 0.58 91 1005.9
20260507070059 9 296 3.2 8.0 0.00 1.88 0.58 92 1005.7
20260507064611 9 296 1.6 8.0 0.00 1.88 0.58 92 1005.5
20260507063106 9 267 1.6 6.4 0.00 1.88 0.58 92 1005.3
20260507061553 10 329 0.0 4.8 0.03 1.88 0.58 93 1005.3
20260507060051 10 346 1.6 4.8 0.03 1.88 0.58 93 1005.0
20260507054549 10 360 1.6 8.0 0.10 1.88 0.58 94 1005.3
20260507053049 10 322 1.6 9.7 0.28 1.88 0.58 94 1005.1
20260507051547 11 5 3.2 11.3 0.48 1.85 0.56 94 1005.2
20260507050045 11 342 3.2 9.7 0.56 1.85 0.56 94 1005.1
20260507044544 10 340 1.6 9.7 0.51 1.78 0.48 94 1005.4
20260507043046 10 240 1.6 6.4 0.30 1.57 0.28 94 1005.5
20260507041544 10 329 1.6 8.0 0.10 1.37 0.08 94 1004.8
20260507040036 10 290 4.8 11.3 0.03 1.30 0.00 94 1004.4
20260507034543 10 196 6.4 12.9 0.00 1.27 1.27 94 1004.3
20260507033046 10 201 6.4 16.1 0.00 1.27 1.27 94 1004.4
20260507031534 10 222 8.0 17.7 0.00 1.27 1.27 94 1004.5
20260507030032 10 228 11.3 17.7 0.03 1.27 1.27 94 1004.5
20260507024533 10 210 8.0 22.5 0.05 1.27 1.27 94 1004.6
20260507023030 10 209 8.0 16.1 0.08 1.27 1.27 94 1004.7
20260507021527 10 205 8.0 19.3 0.08 1.27 1.27 94 1005.0
20260507020026 10 194 9.7 17.7 0.08 1.24 1.24 93 1005.1
20260507014525 10 238 9.7 19.3 0.08 1.22 1.22 93 1005.3
20260507013021 10 156 11.3 20.9 0.08 1.19 1.19 93 1005.5
20260507011521 10 211 4.8 14.5 0.10 1.19 1.19 93 1005.5
20260507010029 10 206 8.0 19.3 0.08 1.17 1.17 93 1005.6
20260507004518 10 171 11.3 17.7 0.05 1.14 1.14 93 1005.7
20260507003017 11 217 11.3 29.0 0.00 1.09 1.09 93 1005.6
20260507001516 11 190 12.9 25.7 0.00 1.09 1.09 92 1005.7
20260507000012 11 165 11.3 25.7 0.00 1.09 1.09 92 1005.7
20260506234516 11 213 16.1 27.4 0.00 1.09 1.09 92 1005.8
20260506233008 11 233 11.3 24.1 0.03 1.09 1.09 92 1006.0
20260506231506 11 243 14.5 27.4 0.08 1.09 1.09 92 1006.0
20260506230004 11 188 14.5 25.7 0.13 1.09 1.09 92 1006.2
20260506224509 11 192 9.7 20.9 0.15 1.07 1.07 92 1006.2
20260506223108 11 184 9.7 22.5 0.23 1.07 1.07 92 1006.5
20260506221557 11 178 11.3 22.5 0.30 1.02 1.02 92 1006.5
20260506220107 11 189 9.7 22.5 0.38 0.97 0.97 92 1006.6
20260506214553 11 203 8.0 17.7 0.38 0.91 0.91 92 1006.7
20260506213051 10 192 9.7 19.3 0.36 0.84 0.84 92 1006.9
20260506211555 10 161 8.0 19.3 0.33 0.71 0.71 91 1007.2
20260506210047 11 196 9.7 17.7 0.28 0.58 0.58 91 1007.0
20260506204545 11 188 8.0 16.1 0.33 0.53 0.53 91 1007.1
20260506203042 11 167 8.0 19.3 0.43 0.48 0.48 91 1007.3
20260506201541 11 219 6.4 14.5 0.38 0.38 0.38 91 1007.7
20260506200040 11 192 8.0 17.7 0.30 0.30 0.30 90 1007.7
20260506194543 11 184 6.4 20.9 0.18 0.18 0.18 89 1007.8
20260506193034 12 209 8.0 25.7 0.05 0.05 0.05 87 1007.8
20260506191531 12 182 9.7 24.1 0.00 0.00 0.00 85 1007.4
20260506190029 12 204 6.4 17.7 0.00 0.00 0.00 84 1007.4
20260506184530 12 165 11.3 20.9 0.00 0.00 0.00 83 1007.5
20260506183027 12 170 9.7 19.3 0.00 0.00 0.00 83 1007.7
20260506181524 12 175 9.7 22.5 0.00 0.00 0.00 82 1007.7
20260506180021 12 188 8.0 17.7 0.00 0.00 0.00 82 1007.9
20260506174520 12 182 8.0 16.1 0.00 0.00 0.00 83 1008.1
20260506173021 12 196 6.4 14.5 0.00 0.00 0.00 83 1008.2
20260506171523 12 198 8.0 24.1 0.00 0.00 0.00 83 1008.5
20260506170016 12 170 8.0 17.7 0.00 0.00 0.00 82 1008.8
20260506164513 13 174 8.0 12.9 0.00 0.00 0.00 81 1009.0
20260506163107 -17 0.0 0.0 0.00 0.00 0.00 1009.4
20260506160006 13 213 8.0 16.1 0.00 0.00 0.00 82 1009.8
20260506154512 13 190 9.7 22.5 0.00 0.00 0.00 82 1010.0
20260506153022 13 221 6.4 17.7 0.00 0.00 0.00 82 1010.1
20260506151520 14 186 4.8 14.5 0.00 0.00 0.00 82 1010.0
20260506150011 13 223 9.7 16.1 0.00 0.00 0.00 81 1009.6
20260506144506 13 221 11.3 17.7 0.00 0.00 0.00 82 1009.3
20260506143008 13 177 8.0 14.5 0.00 0.00 0.00 82 1009.6
20260506141503 13 219 4.8 11.3 0.00 0.00 0.00 83 1010.2
20260506140020 12 213 6.4 16.1 0.00 0.00 0.00 84 1010.2
20260506134521 12 180 6.4 17.7 0.00 0.00 0.00 84 1010.1
20260506133015 12 194 8.0 17.7 0.00 0.00 0.00 83 1010.0
20260506131527 13 193 8.0 16.1 0.00 0.00 0.00 82 1009.8
20260506130006 13 203 9.7 16.1 0.00 0.00 0.00 82 1009.7
20260506124506 12 215 8.0 17.7 0.00 0.00 0.00 83 1009.9
20260506123019 12 184 4.8 12.9 0.00 0.00 0.00 85 1010.0
20260506121520 12 173 6.4 16.1 0.00 0.00 0.00 84 1010.0
20260506120018 12 162 4.8 9.7 0.00 0.00 0.00 84 1010.1